This is the latest recevied weather packets stored in our database for station/object N1IJV-10. If no packets are shown the sender has not sent any weather packets the latest 10 day(s).
| Time | Temp. | Humidity | Pressure | Rain* | Wind** | Luminosity | Snow |
|---|---|---|---|---|---|---|---|
| 1777552733 | 5° C | 99% | 1016.5 hPa | 0 mm | - | 75 W/m² | - |
| 1777552430 | 5° C | 99% | 1016.2 hPa | 0 mm | - | 76 W/m² | - |
| 1777552126 | 4.44° C | 99% | 1016.1 hPa | 0 mm | - | 47 W/m² | - |
| 1777551824 | 4.44° C | 99% | 1016.2 hPa | 0 mm | - | 46 W/m² | - |
| 1777551521 | 4.44° C | 99% | 1016.4 hPa | 0 mm | - | 39 W/m² | - |
| 1777551217 | 4.44° C | 99% | 1016.1 hPa | 0 mm | - | 50 W/m² | - |
| 1777550915 | 4.44° C | 99% | 1016.4 hPa | 0 mm | - | 39 W/m² | - |
| 1777550611 | 3.89° C | 99% | 1016.3 hPa | 0 mm | - | 33 W/m² | - |
| 1777550307 | 3.89° C | 99% | 1016.3 hPa | 0 mm | - | 31 W/m² | - |
| 1777550003 | 3.89° C | 99% | 1016.3 hPa | 0 mm | - | 27 W/m² | - |
| 1777549701 | 3.89° C | 99% | 1016.2 hPa | 0 mm | - | 35 W/m² | - |
| 1777549400 | 3.33° C | 99% | 1016.1 hPa | 0 mm | - | 29 W/m² | - |
| 1777549098 | 2.78° C | 99% | 1016.3 hPa | 0 mm | - | 27 W/m² | - |
| 1777548794 | 2.78° C | 99% | 1016.2 hPa | 0 mm | - | 28 W/m² | - |
| 1777548492 | 2.22° C | 99% | 1016.1 hPa | 0 mm | - | 25 W/m² | - |
| 1777548188 | 2.22° C | 99% | 1016.1 hPa | 0 mm | - | 16 W/m² | - |
| 1777547885 | 2.22° C | 99% | 1016.1 hPa | 0 mm | - | 12 W/m² | - |
| 1777547581 | 2.22° C | 99% | 1016 hPa | 0 mm | - | 9 W/m² | - |
| 1777547278 | 2.22° C | 99% | 1015.8 hPa | 0 mm | - | 6 W/m² | - |
| 1777546975 | 2.22° C | 99% | 1016 hPa | 0 mm | - | 5 W/m² | - |
| 1777546672 | 1.67° C | 99% | 1016.1 hPa | 0 mm | - | 3 W/m² | - |
| 1777546368 | 1.67° C | 99% | 1016.1 hPa | 0 mm | - | 1 W/m² | - |
| 1777546066 | 1.67° C | 99% | 1016.1 hPa | 0 mm | - | 0 W/m² | - |
| 1777545762 | 1.67° C | 99% | 1016 hPa | 0 mm | - | 0 W/m² | - |
| 1777545459 | 1.67° C | 99% | 1015.9 hPa | 0 mm | - | 0 W/m² | - |
* Rain latest hour (hover to see other rain measurements)
** Current wind speed in m/s (hover to see current wind gust speed)